Location: ?
(35.3544°N, 139.4507°E)
Time: 11:51:05
(UTC+00:00)

USA 229 - Pass Details

Date: 03 August 2024
Orbit: 890 x 1322 km, 63.4° (Epoch: 31 August)

Event Time Altitude Azimuth Distance (km) Brightness Sun altitude
Rises 18:53:04 0° 330° (NNW) 4,049 6.8 -11.8°
Reaches altitude 10° 18:55:44 10° 332° (NNW) 3,139 6.2 -11.3°
Maximum altitude 19:03:24 73° 58° (ENE) 1,323 4.4 -10.0°
Drops below altitude 10° 19:11:34 10° 143° (SE) 3,332 6.4 -8.5°
Sets 19:14:27 0° 145° (SE) 4,309 7.0 -8.0°
